This demonstration page uses our WeatherBlox Daily Observations layout. Learn more.

Left ArrowRight Arrow

Hourly Observations for August 18, 2019

Temp ( °F °C ) Dew Point ( °F °C ) Humidity (%) Winds ( mph kmh ) Pressure ( in mb ) Visibility ( mi km ) Precip ( " mm )
12:53 am 00:53 Clear 83 28.3 57 13.9 41 41 SE 10 17 29.68 1005 10 16 0.00 0.00
1:53 am 01:53 Clear 83 28.3 60 15.6 46 46 SSE 14 22 29.68 1005 10 16 0.00 0.00
2:53 am 02:53 Clear 83 28.3 61 16.1 48 48 SSE 15 24 29.68 1005 10 16 0.00 0.00
3:53 am 03:53 Clear 83 28.3 60 15.6 46 46 SSE 14 22 29.68 1005 10 16 0.00 0.00
4:53 am 04:53 Clear 83 28.3 59 15 44 44 SSE 15 24 29.68 1005 10 16 0.00 0.00
5:53 am 05:53 Clear 82 27.8 58 14.4 44 44 SE 12 19 29.67 1005 10 16 0.00 0.00
6:53 am 06:53 Clear 82 27.8 57 13.9 42 42 SE 14 22 29.67 1005 10 16 0.00 0.00
7:53 am 07:53 Sunny 80 26.7 59 15 49 49 SSE 13 20 29.70 1006 10 16 0.00 0.00
8:53 am 08:53 Sunny 82 27.8 61 16.1 49 49 SSE 14 22 29.72 1006 10 16 0.00 0.00
9:53 am 09:53 Sunny 86 30 63 17.2 46 46 SSE 14 22 29.73 1007 10 16 0.00 0.00
10:53 am 10:53 Sunny 93 33.9 60 15.6 33 33 S 8 13 29.73 1007 10 16 0.00 0.00
11:53 am 11:53 Sunny 96 35.6 57 13.9 27 27 SSW 8 13 29.74 1007 10 16 0.00 0.00
12:53 pm 12:53 Sunny 98 36.7 53 11.7 22 22 VRB 3 6 29.73 1007 10 16 0.00 0.00
1:53 pm 13:53 Sunny 103 39.4 46 7.8 15 15 Calm 29.72 1006 10 16 0.00 0.00
2:53 pm 14:53 Sunny 105 40.6 43 6.1 12 12 VRB 7 11 29.69 1006 10 16 0.00 0.00
3:53 pm 15:53 Sunny 107 41.7 41 5 11 11 VRB 7 11 29.67 1005 10 16 0.00 0.00
4:53 pm 16:53 Sunny 107 41.7 40 4.4 10 10 W 5 7 29.65 1004 10 16 0.00 0.00
5:53 pm 17:53 Sunny 107 41.7 39 3.9 10 10 VRB 6 9 29.63 1004 10 16 0.00 0.00
6:53 pm 18:53 Sunny 106 41.1 38 3.3 10 10 SSE 5 7 29.62 1003 10 16 0.00 0.00
7:53 pm 19:53 Sunny 105 40.6 39 3.9 10 10 SSW 5 7 29.63 1003 10 16 0.00 0.00
8:53 pm 20:53 Clear 97 36.1 52 11.1 22 22 SE 18 30 29.67 1005 10 16 0.00 0.00
9:53 pm 21:53 Clear 95 35 55 12.8 26 26 SSE 12 19 29.69 1005 10 16 0.00 0.00
10:53 pm 22:53 Mostly Clear 95 35 56 13.3 27 27 SSE 14 22 29.72 1006 10 16 0.00 0.00
11:53 pm 23:53 Clear 93 33.9 60 15.6 33 33 S 15 24 29.73 1007 10 16 0.00 0.00

Powered by AerisWeather